QPF
0.00 0.00 0.00 0.03 0.03 0.02 0.02 0.01 0.00 0.00 0.00 0.00 0.00 0.00 0.00 0.00 0.00 0.00 0.00 0.00 0.00 0.00 0.00 0.00 0.01 0.02 0.03 0.02 0.00 0.00 0.00 0.00 0.00 0.00 0.00 0.00 0.00 0.00 0.00 0.00 0.00 0.00 0.00
0.00 0.00 0.00 0.02 0.03 0.02 0.02 0.02 0.00 0.00 0.00 0.00 0.00 0.00 0.00 0.00 0.00 0.00 0.00 0.00 0.00 0.00 0.00 0.00 0.00 0.01 0.01 0.01 0.00 0.00 0.00 0.00 0.00 0.00 0.00 0.00 0.00 0.00 0.00 0.00 0.00 0.00 0.00
0.00 0.00 0.00 0.02 0.02 0.03 0.02 0.02 0.01 0.00 0.00 0.00 0.00 0.00 0.00 0.00 0.00 0.00 0.00 0.00 0.00 0.00 0.00 0.00 0.00 0.00 0.01 0.01 0.01 0.00 0.00 0.00 0.00 0.00 0.00 0.00 0.00 0.00 0.00 0.00 0.01 0.01 0.01
0.00 0.00 0.00 0.01 0.02 0.02 0.02 0.01 0.00 0.00 0.00 0.00 0.00 0.00 0.01 0.01 0.00 0.00 0.00 0.00 0.00 0.00 0.00 0.00 0.00 0.00 0.00 0.01 0.01 0.01 0.00 0.00 0.00 0.00 0.00 0.00 0.00 0.00 0.00 0.00 0.01 0.02 0.02
0.00 0.00 0.00 0.00 0.01 0.02 0.02 0.01 0.00 0.00 0.00 0.00 0.00 0.00 0.01 0.02 0.01 0.00 0.00 0.00 0.00 0.00 0.00 0.00 0.00 0.00 0.00 0.00 0.01 0.01 0.00 0.00 0.00 0.00 0.00 0.00 0.00 0.00 0.00 0.00 0.00 0.01 0.01
0.00 0.00 0.00 0.00 0.01 0.01 0.01 0.01 0.00 0.00 0.00 0.00 0.00 0.00 0.02 0.03 0.01 0.00 0.00 0.00 0.00 0.00 0.00 0.00 0.00 0.00 0.00 0.00 0.00 0.00 0.01 0.00 0.00 0.00 0.00 0.00 0.00 0.00 0.00 0.00 0.00 0.00 0.00
0.00 0.00 0.00 0.00 0.00 0.01 0.01 0.01 0.00 0.00 0.00 0.00 0.00 0.00 0.01 0.02 0.02 0.00 0.00 0.00 0.00 0.00 0.00 0.00 0.00 0.00 0.00 0.00 0.00 0.00 0.00 0.00 0.00 0.00 0.00 0.00 0.00 0.00 0.00 0.00 0.00 0.00 0.00
0.00 0.00 0.00 0.00 0.00 0.00 0.01 0.01 0.00 0.00 0.00 0.00 0.00 0.00 0.00 0.01 0.01 0.01 0.00 0.00 0.00 0.00 0.00 0.00 0.00 0.00 0.00 0.00 0.00 0.00 0.00 0.00 0.00 0.00 0.00 0.00 0.00 0.00 0.00 0.01 0.00 0.00 0.00
0.00 0.00 0.00 0.00 0.00 0.00 0.01 0.01 0.00 0.00 0.00 0.00 0.00 0.00 0.00 0.00 0.00 0.00 0.00 0.00 0.00 0.00 0.01 0.01 0.01 0.01 0.01 0.01 0.00 0.00 0.00 0.00 0.00 0.00 0.00 0.00 0.00 0.00 0.00 0.01 0.01 0.01 0.00
0.00 0.00 0.00 0.00 0.00 0.00 0.01 0.01 0.01 0.00 0.00 0.00 0.00 0.00 0.00 0.00 0.00 0.00 0.00 0.00 0.00 0.00 0.01 0.01 0.01 0.02 0.02 0.01 0.01 0.00 0.00 0.00 0.00 0.00 0.00 0.00 0.00 0.00 0.00 0.01 0.01 0.01 0.01
0.00 0.00 0.00 0.00 0.00 0.00 0.00 0.00 0.00 0.00 0.00 0.00 0.00 0.00 0.00 0.00 0.00 0.00 0.00 0.00 0.00 0.00 0.00 0.00 0.01 0.01 0.01 0.01 0.00 0.00 0.00 0.00 0.00 0.00 0.00 0.00 0.00 0.00 0.00 0.00 0.01 0.01 0.01
0.00 0.00 0.00 0.00 0.00 0.00 0.00 0.00 0.00 0.00 0.00 0.00 0.00 0.00 0.00 0.00 0.00 0.00 0.00 0.00 0.00 0.00 0.00 0.00 0.00 0.00 0.00 0.00 0.00 0.00 0.00 0.00 0.00 0.00 0.00 0.00 0.00 0.00 0.00 0.00 0.00 0.01 0.01
0.00 0.00 0.00 0.00 0.00 0.00 0.00 0.00 0.00 0.00 0.00 0.00 0.00 0.00 0.00 0.00 0.00 0.00 0.00 0.00 0.00 0.00 0.00 0.00 0.00 0.00 0.00 0.00 0.00 0.00 0.00 0.00 0.00 0.00 0.00 0.00 0.00 0.00 0.00 0.00 0.00 0.00 0.01
0.00 0.00 0.00 0.00 0.00 0.00 0.00 0.00 0.00 0.00 0.00 0.00 0.00 0.00 0.00 0.00 0.00 0.00 0.00 0.00 0.00 0.00 0.00 0.00 0.00 0.00 0.00 0.00 0.00 0.00 0.00 0.00 0.00 0.00 0.00 0.00 0.00 0.00 0.00 0.00 0.00 0.00 0.00
0.00 0.00 0.00 0.00 0.00 0.00 0.00 0.00 0.00 0.00 0.00 0.00 0.00 0.00 0.00 0.00 0.00 0.00 0.00 0.00 0.00 0.00 0.00 0.00 0.00 0.00 0.00 0.00 0.00 0.00 0.00 0.00 0.00 0.00 0.00 0.00 0.00 0.00 0.00 0.00 0.00 0.00 0.00
0.00 0.00 0.00 0.00 0.00 0.00 0.00 0.00 0.00 0.00 0.00 0.00 0.00 0.00 0.00 0.00 0.00 0.00 0.00 0.00 0.00 0.00 0.00 0.00 0.00 0.00 0.00 0.00 0.00 0.00 0.00 0.00 0.00 0.00 0.00 0.00 0.00 0.00 0.00 0.00 0.00 0.00 0.00
0.00 0.00 0.00 0.00 0.00 0.00 0.00 0.00 0.00 0.00 0.00 0.00 0.00 0.00 0.00 0.00 0.00 0.00 0.00 0.00 0.00 0.00 0.00 0.00 0.00 0.00 0.00 0.00 0.00 0.00 0.00 0.00 0.00 0.00 0.00 0.00 0.00 0.00 0.00 0.00 0.00 0.00 0.00
0.00 0.00 0.00 0.00 0.00 0.00 0.00 0.00 0.00 0.00 0.00 0.00 0.00 0.00 0.00 0.00 0.00 0.00 0.00 0.00 0.00 0.00 0.00 0.00 0.00 0.00 0.00 0.00 0.00 0.00 0.00 0.00 0.00 0.00 0.00 0.00 0.00 0.00 0.00 0.00 0.00 0.00 0.00
0.00 0.00 0.00 0.00 0.00 0.00 0.00 0.00 0.00 0.00 0.00 0.00 0.00 0.00 0.00 0.00 0.00 0.00 0.00 0.00 0.00 0.00 0.00 0.00 0.00 0.00 0.00 0.00 0.00 0.00 0.00 0.00 0.00 0.00 0.00 0.00 0.00 0.00 0.00 0.00 0.00 0.00 0.00
0.00 0.00 0.00 0.00 0.00 0.00 0.00 0.00 0.00 0.00 0.00 0.00 0.00 0.00 0.00 0.00 0.00 0.00 0.00 0.00 0.00 0.00 0.00 0.00 0.00 0.00 0.00 0.00 0.00 0.00 0.00 0.00 0.00 0.00 0.00 0.00 0.00 0.00 0.00 0.00 0.00 0.00 0.00
0.00 0.00 0.00 0.00 0.00 0.00 0.00 0.00 0.00 0.00 0.00 0.00 0.00 0.00 0.00 0.00 0.00 0.00 0.00 0.00 0.00 0.00 0.00 0.00 0.00 0.00 0.00 0.00 0.00 0.00 0.00 0.00 0.00 0.00 0.00 0.00 0.00 0.00 0.00 0.00 0.00 0.00 0.00
0.00 0.00 0.00 0.00 0.00 0.00 0.00 0.00 0.00 0.00 0.00 0.00 0.00 0.00 0.00 0.00 0.00 0.00 0.00 0.00 0.00 0.00 0.00 0.00 0.00 0.00 0.00 0.00 0.00 0.01 0.01 0.00 0.00 0.00 0.00 0.00 0.00 0.00 0.00 0.00 0.00 0.00 0.00
0.00 0.00 0.00 0.00 0.00 0.00 0.00 0.00 0.00 0.00 0.00 0.00 0.00 0.00 0.00 0.00 0.00 0.00 0.00 0.00 0.00 0.00 0.00 0.00 0.00 0.00 0.00 0.00 0.00 0.01 0.02 0.01 0.01 0.00 0.00 0.00 0.00 0.00 0.00 0.00 0.00 0.00 0.00
0.00 0.00 0.00 0.00 0.00 0.00 0.00 0.00 0.00 0.00 0.00 0.00 0.00 0.00 0.00 0.00 0.00 0.00 0.00 0.00 0.00 0.00 0.00 0.00 0.00 0.00 0.00 0.00 0.00 0.00 0.01 0.01 0.01 0.01 0.00 0.00 0.00 0.00 0.00 0.00 0.00 0.00 0.00
0.00 0.00 0.00 0.00 0.00 0.00 0.00 0.00 0.00 0.00 0.00 0.00 0.00 0.00 0.00 0.00 0.00 0.00 0.00 0.00 0.00 0.00 0.00 0.00 0.00 0.00 0.00 0.00 0.00 0.00 0.00 0.00 0.00 0.00 0.00 0.00 0.00 0.00 0.00 0.00 0.00 0.00 0.00
0.00 0.00 0.00 0.00 0.00 0.00 0.00 0.00 0.00 0.00 0.00 0.00 0.00 0.00 0.00 0.00 0.00 0.00 0.00 0.00 0.00 0.00 0.00 0.00 0.00 0.00 0.00 0.00 0.00 0.00 0.00 0.00 0.00 0.00 0.00 0.00 0.00 0.00 0.00 0.00 0.00 0.00 0.00
MSLP
1010.90 1010.98 1011.18 1011.49 1011.86 1012.24 1012.60 1012.89 1013.10 1013.21 1013.26 1013.26 1013.25 1013.26 1013.31 1013.40 1013.52 1013.63 1013.73 1013.78 1013.77 1013.72 1013.62 1013.51 1013.41 1013.34 1013.31 1013.32 1013.37 1013.43 1013.48 1013.52 1013.52 1013.48 1013.42 1013.34 1013.25 1013.17 1013.11 1013.06 1013.03 1013.01 1012.99
1010.82 1010.90 1011.10 1011.41 1011.79 1012.19 1012.57 1012.89 1013.12 1013.27 1013.33 1013.35 1013.36 1013.37 1013.41 1013.48 1013.58 1013.68 1013.76 1013.81 1013.81 1013.77 1013.71 1013.63 1013.57 1013.52 1013.51 1013.53 1013.56 1013.59 1013.61 1013.61 1013.58 1013.52 1013.45 1013.36 1013.28 1013.20 1013.15 1013.10 1013.08 1013.06 1013.05
1010.71 1010.80 1011.00 1011.31 1011.69 1012.11 1012.51 1012.85 1013.12 1013.31 1013.41 1013.45 1013.47 1013.48 1013.52 1013.57 1013.64 1013.72 1013.79 1013.83 1013.84 1013.83 1013.79 1013.76 1013.73 1013.72 1013.72 1013.74 1013.75 1013.76 1013.75 1013.71 1013.65 1013.56 1013.47 1013.38 1013.29 1013.21 1013.15 1013.11 1013.09 1013.08 1013.07
1010.60 1010.70 1010.91 1011.22 1011.61 1012.03 1012.44 1012.82 1013.11 1013.33 1013.46 1013.53 1013.57 1013.59 1013.61 1013.65 1013.71 1013.76 1013.81 1013.85 1013.87 1013.88 1013.88 1013.88 1013.89 1013.90 1013.92 1013.93 1013.93 1013.91 1013.87 1013.80 1013.70 1013.60 1013.48 1013.37 1013.28 1013.19 1013.12 1013.08 1013.05 1013.04 1013.04
1010.53 1010.65 1010.87 1011.19 1011.57 1011.99 1012.41 1012.78 1013.09 1013.33 1013.48 1013.57 1013.62 1013.65 1013.68 1013.71 1013.75 1013.80 1013.84 1013.88 1013.91 1013.94 1013.96 1013.99 1014.02 1014.05 1014.07 1014.08 1014.06 1014.01 1013.94 1013.84 1013.72 1013.60 1013.47 1013.34 1013.23 1013.13 1013.05 1012.99 1012.95 1012.94 1012.96
1010.54 1010.69 1010.92 1011.23 1011.60 1012.01 1012.41 1012.77 1013.07 1013.30 1013.45 1013.55 1013.61 1013.66 1013.69 1013.74 1013.78 1013.83 1013.88 1013.92 1013.95 1013.98 1014.02 1014.05 1014.09 1014.12 1014.13 1014.13 1014.09 1014.02 1013.93 1013.81 1013.67 1013.53 1013.39 1013.26 1013.13 1013.02 1012.93 1012.85 1012.80 1012.79 1012.81
1010.64 1010.80 1011.04 1011.35 1011.70 1012.08 1012.45 1012.77 1013.04 1013.24 1013.38 1013.48 1013.55 1013.61 1013.66 1013.72 1013.79 1013.85 1013.90 1013.95 1013.98 1014.01 1014.04 1014.06 1014.08 1014.10 1014.09 1014.06 1014.00 1013.91 1013.80 1013.67 1013.53 1013.39 1013.24 1013.11 1012.98 1012.85 1012.75 1012.66 1012.60 1012.58 1012.60
1010.79 1010.97 1011.22 1011.51 1011.85 1012.18 1012.50 1012.78 1013.00 1013.16 1013.28 1013.36 1013.44 1013.51 1013.59 1013.68 1013.77 1013.85 1013.91 1013.96 1013.99 1014.00 1014.01 1014.01 1013.99 1013.97 1013.93 1013.87 1013.79 1013.68 1013.55 1013.42 1013.28 1013.14 1013.00 1012.87 1012.75 1012.62 1012.51 1012.42 1012.35 1012.33 1012.34
1010.94 1011.13 1011.38 1011.66 1011.97 1012.27 1012.53 1012.76 1012.93 1013.05 1013.13 1013.21 1013.28 1013.37 1013.48 1013.60 1013.71 1013.81 1013.88 1013.93 1013.94 1013.94 1013.91 1013.87 1013.82 1013.75 1013.67 1013.57 1013.46 1013.33 1013.19 1013.05 1012.92 1012.79 1012.67 1012.55 1012.44 1012.33 1012.22 1012.12 1012.05 1012.01 1012.01
1011.02 1011.21 1011.45 1011.72 1012.00 1012.27 1012.49 1012.67 1012.80 1012.89 1012.96 1013.02 1013.11 1013.21 1013.34 1013.48 1013.61 1013.72 1013.80 1013.84 1013.83 1013.80 1013.73 1013.65 1013.56 1013.45 1013.33 1013.19 1013.05 1012.90 1012.74 1012.60 1012.47 1012.35 1012.25 1012.15 1012.06 1011.96 1011.86 1011.76 1011.68 1011.63 1011.62
1010.98 1011.16 1011.38 1011.64 1011.90 1012.14 1012.34 1012.49 1012.60 1012.68 1012.74 1012.81 1012.90 1013.02 1013.17 1013.32 1013.46 1013.57 1013.64 1013.66 1013.64 1013.57 1013.48 1013.36 1013.23 1013.09 1012.94 1012.77 1012.59 1012.42 1012.24 1012.09 1011.95 1011.84 1011.75 1011.67 1011.59 1011.51 1011.43 1011.33 1011.25 1011.17 1011.13
1010.80 1010.95 1011.15 1011.39 1011.63 1011.86 1012.05 1012.20 1012.31 1012.40 1012.47 1012.56 1012.67 1012.80 1012.96 1013.11 1013.24 1013.35 1013.40 1013.40 1013.35 1013.26 1013.15 1013.01 1012.86 1012.70 1012.52 1012.33 1012.12 1011.92 1011.72 1011.54 1011.39 1011.27 1011.18 1011.11 1011.05 1010.98 1010.90 1010.81 1010.71 1010.62 1010.54
1010.51 1010.62 1010.79 1010.99 1011.22 1011.44 1011.63 1011.80 1011.94 1012.06 1012.17 1012.28 1012.41 1012.56 1012.71 1012.85 1012.96 1013.04 1013.07 1013.04 1012.97 1012.87 1012.75 1012.61 1012.45 1012.28 1012.09 1011.88 1011.65 1011.42 1011.18 1010.97 1010.79 1010.64 1010.54 1010.47 1010.41 1010.35 1010.28 1010.18 1010.07 1009.95 1009.84
1010.18 1010.24 1010.35 1010.52 1010.72 1010.93 1011.14 1011.34 1011.52 1011.68 1011.84 1011.99 1012.14 1012.29 1012.43 1012.55 1012.64 1012.68 1012.67 1012.62 1012.54 1012.43 1012.30 1012.17 1012.02 1011.86 1011.66 1011.44 1011.19 1010.91 1010.63 1010.37 1010.15 1009.96 1009.83 1009.74 1009.67 1009.61 1009.54 1009.44 1009.32 1009.17 1009.03
1009.89 1009.88 1009.93 1010.04 1010.21 1010.42 1010.64 1010.88 1011.10 1011.32 1011.52 1011.71 1011.88 1012.03 1012.16 1012.25 1012.29 1012.30 1012.26 1012.18 1012.08 1011.97 1011.86 1011.73 1011.60 1011.44 1011.24 1011.00 1010.72 1010.40 1010.07 1009.75 1009.47 1009.23 1009.06 1008.93 1008.85 1008.77 1008.70 1008.59 1008.46 1008.29 1008.11
1009.74 1009.65 1009.63 1009.68 1009.80 1009.99 1010.22 1010.49 1010.77 1011.03 1011.28 1011.50 1011.69 1011.83 1011.93 1011.99 1011.99 1011.96 1011.89 1011.79 1011.68 1011.57 1011.46 1011.34 1011.21 1011.05 1010.84 1010.58 1010.26 1009.89 1009.50 1009.12 1008.76 1008.46 1008.23 1008.06 1007.95 1007.86 1007.77 1007.65 1007.51 1007.32 1007.12
1009.77 1009.61 1009.50 1009.48 1009.56 1009.72 1009.97 1010.26 1010.57 1010.88 1011.16 1011.40 1011.59 1011.73 1011.81 1011.83 1011.80 1011.73 1011.63 1011.52 1011.40 1011.28 1011.17 1011.04 1010.91 1010.73 1010.49 1010.19 1009.83 1009.40 1008.95 1008.49 1008.06 1007.69 1007.40 1007.18 1007.02 1006.90 1006.79 1006.66 1006.51 1006.31 1006.10
1009.99 1009.76 1009.58 1009.50 1009.53 1009.67 1009.91 1010.22 1010.57 1010.90 1011.21 1011.46 1011.65 1011.77 1011.82 1011.82 1011.76 1011.67 1011.55 1011.42 1011.29 1011.16 1011.03 1010.89 1010.72 1010.50 1010.23 1009.88 1009.46 1008.97 1008.45 1007.92 1007.42 1006.98 1006.61 1006.33 1006.12 1005.95 1005.82 1005.67 1005.51 1005.30 1005.07
1010.37 1010.08 1009.84 1009.71 1009.71 1009.84 1010.08 1010.41 1010.77 1011.13 1011.45 1011.70 1011.87 1011.97 1012.00 1011.98 1011.90 1011.80 1011.67 1011.53 1011.39 1011.24 1011.08 1010.90 1010.69 1010.42 1010.09 1009.68 1009.20 1008.65 1008.07 1007.47 1006.90 1006.38 1005.94 1005.58 1005.30 1005.08 1004.90 1004.73 1004.54 1004.33 1004.10
1010.83 1010.51 1010.24 1010.08 1010.07 1010.20 1010.46 1010.80 1011.18 1011.54 1011.86 1012.10 1012.26 1012.34 1012.35 1012.31 1012.23 1012.12 1011.99 1011.85 1011.70 1011.53 1011.33 1011.10 1010.83 1010.50 1010.10 1009.63 1009.09 1008.49 1007.85 1007.20 1006.56 1005.97 1005.44 1005.00 1004.64 1004.34 1004.10 1003.88 1003.66 1003.44 1003.19
1011.31 1010.99 1010.72 1010.56 1010.56 1010.71 1010.99 1011.35 1011.74 1012.11 1012.41 1012.63 1012.77 1012.82 1012.82 1012.77 1012.69 1012.59 1012.48 1012.34 1012.18 1011.98 1011.75 1011.47 1011.13 1010.74 1010.28 1009.75 1009.17 1008.53 1007.85 1007.15 1006.45 1005.79 1005.18 1004.63 1004.16 1003.77 1003.44 1003.15 1002.89 1002.64 1002.38
1011.76 1011.46 1011.21 1011.09 1011.12 1011.31 1011.62 1012.00 1012.40 1012.76 1013.05 1013.24 1013.35 1013.38 1013.36 1013.31 1013.24 1013.16 1013.06 1012.94 1012.77 1012.55 1012.28 1011.95 1011.56 1011.11 1010.60 1010.04 1009.43 1008.76 1008.06 1007.33 1006.59 1005.85 1005.15 1004.50 1003.91 1003.39 1002.95 1002.57 1002.25 1001.96 1001.68
1012.15 1011.90 1011.71 1011.64 1011.72 1011.95 1012.29 1012.69 1013.09 1013.44 1013.71 1013.87 1013.94 1013.95 1013.92 1013.87 1013.81 1013.75 1013.67 1013.55 1013.39 1013.15 1012.85 1012.48 1012.04 1011.55 1011.02 1010.44 1009.82 1009.16 1008.46 1007.72 1006.94 1006.15 1005.35 1004.58 1003.86 1003.21 1002.64 1002.15 1001.74 1001.39 1001.09
1012.51 1012.33 1012.20 1012.19 1012.33 1012.61 1012.98 1013.39 1013.78 1014.11 1014.33 1014.46 1014.50 1014.48 1014.44 1014.39 1014.34 1014.30 1014.23 1014.13 1013.96 1013.71 1013.38 1012.98 1012.51 1012.00 1011.45 1010.88 1010.29 1009.65 1008.97 1008.24 1007.45 1006.60 1005.73 1004.85 1003.99 1003.20 1002.49 1001.88 1001.37 1000.95 1000.61
1012.86 1012.76 1012.70 1012.76 1012.95 1013.26 1013.65 1014.05 1014.42 1014.71 1014.90 1014.98 1014.99 1014.95 1014.89 1014.84 1014.81 1014.77 1014.71 1014.61 1014.43 1014.17 1013.81 1013.38 1012.90 1012.38 1011.84 1011.29 1010.73 1010.14 1009.50 1008.79 1008.00 1007.13 1006.19 1005.22 1004.24 1003.32 1002.47 1001.74 1001.12 1000.63 1000.23
1013.24 1013.22 1013.24 1013.36 1013.59 1013.91 1014.30 1014.68 1015.01 1015.26 1015.40 1015.44 1015.42 1015.35 1015.28 1015.23 1015.19 1015.16 1015.10 1014.98 1014.79 1014.50 1014.12 1013.66 1013.16 1012.64 1012.11 1011.59 1011.08 1010.54 1009.95 1009.28 1008.51 1007.63 1006.66 1005.61 1004.55 1003.51 1002.55 1001.70 1000.99 1000.41 999.95
Thickness
5773 5772 5764 5762 5759 5756 5753 5750 5747 5745 5743 5743 5742 5742 5741 5740 5740 5740 5740 5739 5738 5737 5737 5737 5736 5736 5735 5734 5732 5731 5729 5728 5725 5722 5720 5718 5717 5717 5716 5715 5715 5718 5715
5775 5770 5763 5760 5757 5753 5750 5747 5745 5742 5740 5739 5739 5739 5738 5737 5737 5737 5736 5736 5735 5734 5733 5733 5732 5732 5731 5731 5729 5727 5726 5724 5721 5718 5716 5715 5714 5712 5712 5711 5711 5714 5712
5772 5768 5762 5758 5755 5752 5748 5745 5742 5740 5737 5736 5736 5736 5735 5735 5734 5734 5733 5733 5732 5731 5730 5729 5729 5728 5728 5728 5726 5724 5722 5720 5718 5715 5713 5716 5716 5711 5709 5709 5708 5708 5708
5769 5766 5763 5757 5753 5750 5746 5743 5740 5737 5735 5733 5733 5733 5733 5733 5732 5731 5730 5730 5729 5728 5727 5725 5725 5724 5724 5724 5722 5720 5719 5717 5714 5712 5714 5717 5715 5711 5708 5707 5706 5706 5705
5766 5764 5760 5754 5751 5748 5744 5741 5738 5735 5733 5731 5730 5731 5731 5730 5730 5729 5728 5727 5726 5724 5723 5722 5721 5721 5720 5719 5718 5716 5715 5713 5711 5710 5712 5713 5712 5710 5707 5706 5705 5704 5702
5763 5760 5757 5751 5748 5745 5742 5739 5736 5733 5731 5729 5728 5728 5728 5728 5727 5726 5724 5723 5722 5721 5719 5718 5717 5717 5716 5715 5714 5713 5712 5711 5709 5711 5711 5711 5712 5709 5706 5705 5705 5703 5701
5759 5757 5754 5747 5744 5742 5740 5737 5735 5732 5730 5728 5726 5725 5725 5725 5725 5723 5721 5719 5718 5717 5716 5714 5713 5713 5712 5711 5711 5710 5709 5708 5707 5709 5709 5709 5709 5706 5704 5704 5703 5701 5699
5755 5753 5750 5744 5741 5739 5737 5735 5732 5730 5728 5725 5723 5722 5721 5721 5720 5719 5717 5715 5714 5713 5712 5711 5710 5709 5708 5708 5707 5707 5705 5704 5704 5706 5706 5706 5705 5702 5701 5701 5700 5699 5697
5752 5750 5748 5745 5740 5736 5734 5732 5730 5727 5725 5723 5721 5719 5717 5716 5715 5714 5713 5711 5710 5710 5709 5708 5707 5706 5706 5705 5704 5703 5702 5700 5700 5702 5702 5702 5700 5697 5696 5696 5696 5695 5694
5748 5747 5747 5744 5741 5738 5734 5730 5727 5725 5722 5720 5718 5716 5714 5712 5711 5710 5709 5708 5707 5706 5706 5705 5704 5703 5703 5702 5701 5699 5698 5696 5699 5700 5699 5698 5695 5692 5691 5691 5691 5690 5689
5744 5745 5744 5743 5740 5737 5734 5730 5725 5722 5719 5717 5716 5713 5711 5711 5712 5709 5707 5705 5704 5703 5702 5702 5701 5700 5699 5699 5698 5696 5694 5696 5698 5697 5695 5694 5690 5688 5687 5686 5685 5684 5683
5743 5744 5744 5741 5739 5735 5732 5728 5725 5722 5720 5717 5716 5714 5711 5710 5709 5706 5704 5701 5700 5700 5699 5698 5697 5695 5695 5697 5697 5692 5692 5693 5692 5692 5692 5688 5685 5683 5683 5682 5680 5679 5677
5745 5744 5743 5742 5738 5735 5731 5727 5725 5721 5718 5716 5713 5711 5708 5707 5705 5703 5702 5701 5699 5697 5697 5696 5694 5693 5693 5692 5690 5689 5688 5687 5687 5687 5687 5683 5680 5678 5678 5677 5676 5674 5673
5743 5743 5743 5741 5738 5734 5731 5727 5724 5720 5717 5714 5711 5708 5706 5704 5703 5702 5699 5698 5696 5695 5693 5690 5689 5689 5687 5686 5685 5684 5683 5682 5682 5682 5682 5679 5675 5674 5673 5672 5671 5670 5668
5741 5742 5742 5741 5739 5734 5729 5725 5722 5720 5716 5713 5709 5707 5704 5702 5701 5699 5696 5693 5690 5688 5686 5684 5684 5683 5682 5682 5681 5679 5678 5678 5679 5678 5679 5677 5673 5671 5670 5669 5668 5666 5665
5738 5739 5740 5739 5737 5733 5728 5723 5721 5718 5713 5710 5707 5704 5700 5698 5695 5692 5690 5687 5685 5682 5680 5678 5678 5678 5677 5678 5677 5676 5677 5677 5677 5676 5676 5677 5674 5671 5669 5668 5667 5665 5663
5732 5734 5735 5735 5734 5730 5726 5721 5718 5714 5710 5706 5703 5699 5696 5692 5689 5687 5684 5682 5680 5678 5676 5675 5674 5673 5673 5672 5672 5672 5672 5673 5673 5672 5672 5672 5672 5669 5666 5664 5663 5662 5661
5726 5728 5730 5730 5729 5726 5721 5716 5713 5709 5704 5701 5697 5693 5690 5687 5684 5681 5678 5676 5674 5671 5669 5668 5667 5667 5667 5666 5667 5668 5668 5668 5668 5668 5668 5667 5666 5665 5663 5660 5657 5655 5654
5720 5722 5723 5724 5723 5719 5714 5709 5705 5701 5696 5693 5689 5686 5683 5679 5677 5674 5671 5669 5667 5664 5662 5660 5659 5658 5658 5658 5659 5659 5661 5663 5664 5664 5663 5662 5660 5658 5656 5655 5651 5648 5646
5712 5714 5716 5715 5714 5711 5706 5702 5697 5691 5687 5682 5678 5674 5672 5669 5666 5665 5662 5659 5658 5656 5654 5652 5650 5650 5649 5650 5650 5652 5654 5656 5658 5658 5657 5656 5654 5651 5648 5646 5644 5643 5639
5703 5704 5705 5705 5704 5702 5699 5694 5687 5680 5674 5669 5664 5661 5658 5656 5654 5651 5650 5648 5645 5644 5641 5641 5640 5640 5640 5639 5640 5643 5647 5652 5652 5652 5649 5646 5644 5643 5641 5639 5636 5633 5631
5693 5693 5693 5693 5692 5690 5686 5681 5675 5669 5662 5657 5652 5648 5646 5643 5640 5638 5636 5635 5632 5630 5629 5627 5626 5626 5626 5624 5623 5626 5635 5640 5641 5637 5631 5629 5630 5629 5628 5626 5623 5619 5616
5681 5682 5681 5681 5679 5677 5673 5668 5663 5658 5653 5648 5642 5637 5633 5630 5627 5625 5623 5621 5619 5618 5616 5614 5612 5610 5610 5610 5607 5604 5606 5613 5613 5619 5618 5615 5612 5611 5610 5607 5604 5602 5599
5671 5671 5672 5670 5668 5665 5662 5658 5653 5648 5641 5634 5630 5626 5622 5618 5615 5612 5610 5608 5606 5604 5602 5600 5597 5594 5592 5592 5589 5585 5578 5576 5579 5592 5593 5590 5588 5586 5585 5585 5583 5580 5576
5662 5662 5661 5660 5656 5652 5649 5645 5641 5635 5628 5623 5619 5616 5612 5608 5603 5599 5597 5594 5592 5589 5586 5583 5579 5576 5573 5570 5566 5562 5560 5556 5554 5557 5566 5567 5563 5561 5559 5558 5555 5553 5549
5653 5652 5651 5649 5644 5640 5636 5632 5628 5623 5618 5613 5609 5605 5602 5598 5592 5587 5584 5582 5579 5574 5570 5566 5562 5558 5554 5549 5544 5539 5534 5531 5528 5527 5533 5541 5543 5543 5536 5533 5528 5523 5520